Location: Geçitköy
(36.7327°N, 29.8010°E)
Time: 20:06:57
(UTC+00:00)

Cosmos 1933 Rocket - Pass Details

Date: 12 January 2026
Orbit: 600 x 623 km, 82.5° (Epoch: 10 February)

Event Time Altitude Azimuth Distance (km) Brightness Sun altitude
Rises 16:13:15 0° 4° (N) 2,897 6.8 -13.5°
Reaches altitude 10° 16:15:42 10° 15° (NNE) 1,983 5.9 -13.9°
Maximum altitude 16:19:36 31° 77° (ENE) 1,081 4.2 -14.7°
Drops below altitude 10° 16:23:28 10° 141° (SE) 1,957 5.9 -15.4°
Sets 16:25:52 0° 151° (SSE) 2,852 6.8 -15.9°
